Location: Heathcote
(40.9845°N, 73.7746°W)
Time: 04:54:19
(UTC+00:00)

Cosmos 1606 Rocket - Pass Details

Date: 29 October 2020
Orbit: 603 x 631 km, 82.5° (Epoch: 27 November)

Event Time Altitude Azimuth Distance (km) Brightness Sun altitude
Rises 22:29:08 0° 195° (SSW) 2,861 7.4 -7.2°
Reaches altitude 10° 22:31:21 10° 199° (SSW) 1,965 6.6 -7.7°
Maximum altitude 22:35:40 61° 280° (W) 702 4.2 -8.5°
Drops below altitude 10° 22:40:03 10° 1° (N) 1,998 6.1 -9.3°
Sets 22:42:19 0° 5° (N) 2,914 6.9 -9.7°
